Probability
14 14 15 13 11 14 15 15 16 19 22 23 17 9 5 4 3 3 2 3 6 9 9 9 7 6 6 4 3 3 2 1 0 0 0 0 0 0 0 1 2 3 3
12 12 13 13 12 14 14 13 13 16 20 21 16 8 4 4 3 2 1 2 5 7 8 8 7 6 6 5 3 2 2 1 0 0 0 0 0 0 0 1 2 3 3
7 8 10 11 12 13 12 10 10 12 16 17 14 8 5 4 2 1 0 1 2 4 6 8 7 5 4 4 3 2 2 1 0 0 0 0 0 0 0 0 1 2 3
3 3 5 7 8 9 10 8 8 10 12 12 11 8 5 4 1 0 0 1 1 1 2 5 5 4 3 4 3 3 3 3 1 0 0 0 0 0 0 0 0 1 2
1 1 2 3 5 6 6 6 6 6 8 8 7 6 5 2 1 0 0 0 0 0 1 2 3 3 3 3 3 3 3 3 2 1 0 0 0 0 0 0 0 0 1
0 0 1 2 3 3 4 4 4 4 4 4 5 5 4 2 0 0 0 0 0 0 0 1 2 3 3 3 3 3 3 3 2 1 0 0 0 0 0 0 0 0 0
0 0 0 1 1 1 2 2 2 2 2 2 3 3 2 1 0 0 0 0 0 0 0 2 3 3 3 3 3 3 3 3 2 1 0 0 0 0 0 0 0 0 0
0 0 0 0 0 0 1 1 1 1 1 1 1 1 0 0 0 0 0 0 0 0 0 1 2 3 3 3 3 3 3 3 2 1 0 0 0 0 0 0 0 0 0
0 0 0 0 0 0 0 0 0 0 0 0 0 0 0 0 0 0 0 0 0 0 0 1 1 1 3 3 3 3 3 2 1 0 0 0 0 0 0 0 0 0 0
0 0 0 0 0 0 0 0 0 0 0 0 0 0 0 0 0 0 0 0 0 0 0 0 0 1 2 3 3 3 3 2 0 0 0 0 0 0 0 0 0 0 0
0 0 0 0 0 0 0 0 0 0 0 0 0 0 0 0 0 0 0 0 0 0 0 0 0 1 2 3 3 3 2 1 0 0 0 0 0 0 0 0 0 0 0
0 0 0 0 0 0 0 0 0 0 0 0 0 0 0 0 0 0 0 0 0 0 0 0 0 0 1 2 2 2 1 1 0 0 0 0 0 0 0 0 0 0 0
0 0 0 0 0 0 0 0 0 0 0 0 0 0 0 0 0 0 0 0 0 0 1 1 1 1 1 1 1 1 0 0 0 0 0 0 0 0 0 0 0 0 0
0 0 0 0 0 0 0 0 0 0 0 0 0 0 0 0 0 0 0 0 0 1 2 2 2 2 1 0 0 0 0 0 0 0 0 0 0 0 0 0 0 0 0
0 0 0 0 0 0 0 0 0 0 0 0 0 0 0 0 0 0 0 0 0 1 3 3 3 2 1 0 0 0 0 0 0 0 0 0 0 0 0 0 0 0 0
0 0 0 0 0 0 0 0 0 0 0 0 0 0 0 0 0 0 0 0 1 2 3 3 2 1 0 0 0 0 0 0 0 0 0 0 0 0 0 0 0 0 0
0 0 0 0 0 0 0 0 0 0 0 0 0 0 0 0 0 0 0 0 1 2 2 1 1 0 0 0 0 0 0 0 0 0 0 0 0 0 0 0 0 0 0
0 0 0 0 0 0 0 0 0 0 0 0 0 0 0 0 0 0 0 0 0 1 1 0 0 0 0 0 0 0 0 0 0 0 0 0 0 0 0 0 0 0 0
0 0 0 0 0 0 0 0 0 0 0 0 0 0 0 0 0 0 0 0 0 0 0 0 0 0 0 0 0 0 0 0 0 0 0 0 0 0 0 0 0 0 0
0 0 0 0 0 0 0 0 0 0 0 0 0 0 0 0 0 0 0 0 0 0 0 0 0 0 0 0 0 0 0 0 0 0 0 0 0 0 0 0 0 0 0
0 0 0 0 0 0 0 0 0 0 0 0 0 0 0 0 0 0 0 0 0 0 0 0 0 0 0 0 0 0 0 0 0 0 0 0 0 0 0 0 0 0 0
0 0 0 0 0 0 0 0 0 0 0 0 0 0 0 0 0 0 0 0 0 0 0 0 0 0 0 0 0 0 0 0 0 0 0 0 0 0 0 0 0 0 0
0 0 0 0 0 0 0 0 0 0 0 0 0 0 0 0 0 0 0 0 0 0 0 0 0 0 0 0 0 0 0 0 0 0 0 0 0 0 0 0 0 0 0
0 0 0 0 0 0 0 0 0 0 0 0 0 0 0 0 0 0 0 0 0 0 0 0 0 0 0 0 0 0 0 0 0 0 0 0 0 0 0 0 0 0 0
0 0 0 0 0 0 0 0 0 0 0 0 0 0 0 0 0 0 0 0 0 0 0 0 0 0 0 0 0 0 0 0 0 0 0 0 0 0 0 0 0 0 0
0 0 0 0 0 0 0 0 0 0 0 0 0 0 0 0 0 0 0 0 0 0 0 0 0 0 0 0 0 0 0 0 0 0 0 0 0 0 0 0 0 0 0
Wind_Speed
5 6 6 6 6 6 5 4 4 3 2 1 1 1 1 1 1 1 1 1 0 0 1 1 1 1 2 3 4 3 4 2 3 3 3 3 4 3 3 3 4 5 4
6 7 8 7 7 6 6 5 4 3 2 1 0 1 2 1 1 1 2 2 2 1 1 1 1 1 1 2 3 3 3 2 3 3 3 2 1 2 3 3 4 4 4
5 6 7 7 7 7 6 5 4 4 4 3 2 2 2 1 2 2 2 3 3 3 2 1 1 1 1 2 3 4 4 4 3 2 3 4 4 2 2 2 3 4 4
5 5 7 7 8 7 6 6 6 5 4 4 3 3 2 2 2 2 2 4 5 4 3 1 1 1 1 1 2 3 3 5 4 2 1 2 4 4 3 2 2 3 3
5 5 6 6 7 7 7 6 7 7 6 5 4 3 3 2 2 2 4 4 4 4 4 2 2 2 1 1 1 1 2 3 4 3 2 2 2 2 4 4 3 2 2
5 5 5 5 6 7 7 7 7 7 7 6 5 4 4 3 3 4 3 3 3 3 4 4 3 3 2 2 1 1 2 2 2 2 2 3 3 3 3 4 4 3 2
4 4 5 6 6 7 7 7 7 7 7 7 6 6 5 5 4 3 3 3 3 3 4 4 3 3 3 3 2 2 1 1 2 2 2 2 1 3 3 5 4 3 2
4 4 4 5 5 6 6 7 7 7 7 7 6 6 6 4 3 3 3 3 3 3 3 4 4 4 4 4 3 3 3 2 2 1 1 2 1 2 3 5 6 5 2
5 5 4 5 5 5 6 6 6 7 7 7 6 6 5 4 4 4 4 3 3 3 5 5 5 5 5 5 4 4 4 4 3 2 2 2 2 2 2 4 6 6 5
5 5 4 4 5 5 5 6 6 7 6 7 6 5 5 5 4 4 5 5 5 4 5 6 6 6 6 6 5 5 5 6 5 3 4 4 3 3 3 3 3 3 5
6 4 3 4 4 5 5 6 6 6 6 6 6 6 6 5 5 5 5 5 5 5 5 5 6 6 6 6 6 6 6 7 6 5 6 6 5 4 4 4 4 4 4
6 5 4 4 4 5 5 5 5 6 5 5 6 6 6 6 6 6 5 5 6 5 6 6 6 7 7 6 7 7 7 7 7 6 7 6 5 6 4 4 5 4 4
7 5 4 4 4 4 4 5 5 5 5 5 6 6 6 6 6 6 5 6 6 6 6 7 7 7 7 7 7 7 7 7 7 6 7 6 6 6 5 5 5 5 5
7 6 4 4 4 3 4 4 5 4 4 5 6 6 6 5 5 5 6 6 6 6 6 7 7 7 7 7 7 7 7 8 8 7 7 7 7 6 6 6 6 6 7
7 6 5 4 3 3 4 4 4 4 4 5 6 5 5 5 5 6 6 6 6 7 6 7 7 7 6 6 6 6 7 7 8 8 8 8 9 9 6 5 6 6 6
8 7 6 5 4 3 3 4 4 4 4 5 5 5 5 6 6 6 6 6 6 6 7 7 7 7 6 8 10 7 7 7 7 7 7 8 9 11 11 10 8 6 6
8 8 6 5 5 3 3 3 3 3 4 4 5 5 5 5 5 6 6 6 6 6 7 6 7 7 7 10 10 10 7 7 7 6 6 6 7 8 7 10 11 9 7
8 7 6 5 4 4 4 3 4 4 4 4 5 4 5 5 5 6 6 6 5 5 5 6 6 6 8 10 10 10 8 7 7 6 6 6 6 6 6 7 7 6 5
7 6 6 5 5 5 4 4 4 4 4 4 4 4 4 4 5 5 5 4 5 5 5 5 6 6 7 9 9 8 6 6 7 6 6 6 6 7 7 7 6 6 5
7 7 6 6 5 4 4 4 4 4 4 3 3 4 4 4 4 4 4 4 4 5 5 6 6 6 6 8 8 7 4 5 4 5 5 7 6 6 6 5 5 5 3
9 8 7 6 5 4 5 5 4 4 3 3 4 5 4 4 4 4 4 5 5 5 6 6 6 6 6 7 8 7 4 3 4 4 3 4 6 6 6 4 3 2 1
9 8 7 6 4 4 5 5 4 2 3 4 5 5 4 4 4 5 5 5 5 5 5 5 5 5 5 6 7 8 7 4 3 2 2 2 5 5 5 4 4 4 3
8 7 7 6 4 4 5 5 3 3 4 5 5 5 5 5 4 4 4 4 4 4 3 3 3 3 3 4 8 8 8 6 3 2 2 3 4 5 5 6 6 4 3
8 7 7 6 4 3 4 4 3 4 5 5 4 4 5 5 5 4 3 3 3 3 3 2 2 2 2 3 3 3 3 5 4 3 4 5 6 5 4 4 4 3 2
6 6 6 6 5 4 4 3 4 5 5 5 4 4 4 4 4 4 3 3 1 1 2 1 1 1 1 2 2 2 2 2 2 2 2 3 3 3 3 3 3 3 3
7 6 6 5 5 4 3 3 4 5 5 4 3 3 3 3 3 3 3 6 4 4 3 3 3 1 1 1 2 3 4 3 2 3 3 2 2 2 2 2 2 2 2
Wind_Direction
38 37 41 44 47 47 51 55 46 30 44 58 92 93 87 65 66 73 63 57 95 122 148 155 165 184 197 187 171 164 152 145 133 117 100 61 55 64 75 91 95 87 84
43 35 33 36 40 40 34 40 39 32 37 50 114 100 98 81 75 50 40 25 26 39 74 105 146 153 173 182 178 164 154 155 163 141 133 134 96 58 59 81 97 97 91
56 38 33 32 35 35 28 26 26 30 31 43 71 76 69 55 46 37 31 17 16 26 27 45 126 135 163 184 191 182 171 174 183 159 151 156 172 138 68 66 90 102 100
66 46 34 28 28 27 25 28 30 32 33 45 65 73 76 66 35 26 25 21 20 18 21 21 56 99 160 174 188 180 177 174 178 183 153 114 135 147 139 93 80 93 100
72 57 41 30 25 26 25 24 32 35 30 39 61 76 73 62 44 37 39 29 15 15 13 23 39 48 47 96 111 133 157 176 178 173 149 117 98 107 136 149 141 98 74
80 65 46 39 30 27 25 26 33 32 30 35 43 57 71 67 57 40 35 25 14 12 16 29 41 48 44 47 67 109 149 168 169 170 155 151 150 155 137 140 146 131 96
97 74 53 41 31 28 27 30 34 30 27 34 38 42 51 52 52 39 38 33 21 11 10 30 40 44 47 50 56 68 73 123 153 166 171 154 157 140 131 129 130 116 99
97 81 62 48 37 32 31 33 32 28 26 32 36 45 45 41 35 34 37 40 30 15 18 38 47 50 50 53 57 65 59 64 74 92 136 140 142 145 143 142 141 128 103
103 88 69 52 42 36 34 35 37 33 27 26 33 41 45 47 41 39 42 36 26 28 35 44 48 51 54 56 62 63 58 65 62 60 77 95 102 118 128 138 146 145 147
109 94 77 60 45 37 37 41 44 41 32 29 34 40 39 44 46 49 50 46 35 34 44 47 48 50 54 58 62 62 53 62 54 58 69 68 71 84 95 114 108 115 133
121 106 90 72 58 45 43 43 41 39 35 34 36 37 35 41 53 55 52 54 48 41 46 49 52 53 53 57 63 60 58 64 59 56 67 64 66 76 80 88 93 96 108
119 111 101 83 66 51 46 46 43 41 35 36 42 41 37 43 52 51 48 55 56 48 48 51 53 54 53 54 62 63 58 60 58 57 62 60 70 72 73 83 88 93 98
123 117 106 89 76 62 54 53 47 45 41 46 50 47 43 45 50 49 46 51 57 53 51 55 54 54 54 56 59 65 64 60 56 55 63 63 74 75 76 80 85 89 93
133 129 114 96 85 73 66 58 48 46 51 54 54 50 44 46 51 52 50 51 56 56 53 56 55 53 54 58 61 66 67 63 57 54 58 63 71 79 83 85 88 94 94
141 136 126 113 97 84 75 66 54 47 52 59 58 52 49 51 54 56 54 55 56 56 54 58 55 49 50 52 62 66 70 66 61 54 52 61 71 72 78 94 99 102 102
149 141 135 127 117 105 91 78 63 51 56 63 62 56 55 56 55 57 59 60 57 55 55 54 57 52 48 53 62 71 71 66 63 58 51 56 60 66 70 80 87 101 115
150 147 144 139 132 120 102 89 74 66 65 62 62 59 59 60 56 64 64 61 59 59 56 51 57 55 47 57 65 68 72 66 58 56 55 56 52 61 72 70 68 64 75
146 144 141 134 123 111 99 89 81 77 70 62 56 55 63 65 63 66 65 60 59 60 56 52 52 56 48 57 69 72 69 66 57 53 55 62 52 57 77 79 70 61 53
136 133 130 126 118 113 108 98 84 79 74 67 60 60 70 72 69 70 67 66 70 64 59 54 52 55 45 54 69 75 73 66 54 48 49 59 61 56 73 81 76 64 44
124 125 122 116 113 110 106 100 89 85 78 74 71 68 74 80 78 75 73 70 74 75 74 63 51 53 48 50 66 74 78 70 57 46 42 49 57 57 68 81 82 69 36
121 121 120 116 114 111 102 92 86 84 81 80 78 77 72 74 76 70 70 80 80 75 69 64 51 47 44 48 60 70 77 79 68 52 35 30 41 57 63 75 81 94 95
123 124 120 113 110 114 110 102 94 91 84 79 77 74 67 66 74 74 73 78 86 82 69 61 52 40 32 41 55 66 73 79 75 53 21 14 32 54 64 69 79 93 93
126 122 120 112 102 106 114 111 107 102 91 82 79 78 72 61 64 77 81 76 78 87 82 72 61 41 31 35 47 55 57 58 64 34 15 33 54 60 59 60 69 76 76
125 123 121 117 107 102 109 117 110 102 97 91 82 79 79 67 57 57 66 78 82 92 99 93 77 49 31 25 23 26 33 38 43 32 35 50 62 61 57 51 48 47 55
124 127 129 129 125 113 103 105 109 106 98 92 87 81 79 81 69 57 47 59 55 161 142 140 133 110 46 344 2 23 12 4 7 34 46 44 40 40 37 40 41 39 44
128 126 126 128 125 118 108 102 110 116 111 99 93 92 91 84 82 78 55 42 50 61 103 138 142 120 183 328 12 12 9 12 68 80 64 50 46 43 32 29 26 27 28